Simultaneous Nadir Overpasses (SNOs) Predictions

Prediction of SNOs near equator between AQUA and NPP Satellite Orbit:

Table of predicted SNOs near equator for the next 14.0 days since TLE Epoch: 3/25/2016
Index Date (AQUA) Time (AQUA) AQUA Lat,Lon Date (NPP) Time (NPP) NPP Lat,Lon Distance(km) Time Diff (sec)
1 03/26/2016 07:57:14 -19.40, -98.25 03/26/2016 07:47:14 -19.41, -98.31 6.88 600
2 03/26/2016 08:41:57 2.01, 73.18 03/26/2016 08:33:06 1.96, 73.00 20.85 531
3 03/26/2016 09:30:04 2.52,-118.19 03/26/2016 09:22:29 2.60,-118.65 50.90 455
4 03/26/2016 10:18:20 -7.06, 50.39 03/26/2016 10:12:00 -7.21, 49.68 80.27 380
5 03/29/2016 00:09:51 -5.19, 20.75 03/29/2016 00:00:08 -5.18, 20.75 1.11 583
6 03/29/2016 00:58:07 0.66,-170.66 03/29/2016 00:49:39 0.58,-170.93 30.47 508
7 03/29/2016 01:46:13 3.94, -2.03 03/29/2016 01:39:01 4.04, -2.56 60.39 432
8 03/29/2016 02:34:29 -8.48, 166.56 03/29/2016 02:28:32 -8.64, 165.77 89.44 357
9 03/31/2016 16:25:59 -3.79, 136.92 03/31/2016 16:16:39 -3.75, 136.83 10.21 560
10 03/31/2016 17:14:15 -0.75, -54.50 03/31/2016 17:06:10 -0.85, -54.85 40.17 485
11 03/31/2016 18:02:22 5.28, 114.13 03/31/2016 17:55:33 5.41, 113.51 69.93 409
12 03/31/2016 18:50:37 -9.88, -77.27 03/31/2016 18:45:03 -10.07, -78.14 98.56 334
13 04/03/2016 08:00:23 29.98, 79.11 04/03/2016 07:50:23 30.07, 78.90 22.62 600
14 04/03/2016 08:42:08 -2.40,-106.92 04/03/2016 08:33:12 -2.38,-107.10 20.07 536
15 04/03/2016 09:30:23 -2.20, 61.68 04/03/2016 09:22:42 -2.27, 61.24 49.80 461
16 04/03/2016 10:18:31 6.68,-129.71 04/03/2016 10:12:05 6.84,-130.41 79.41 386
17 04/06/2016 00:10:28 6.65,-159.62 04/06/2016 00:00:40 6.65,-159.63 0.93 588
18 04/06/2016 00:58:16 -0.95, 9.25 04/06/2016 00:49:43 -0.90, 8.99 29.59 513
19 04/06/2016 01:46:32 -3.57, 177.84 04/06/2016 01:39:14 -3.69, 177.32 59.49 438
20 04/06/2016 02:34:39 8.12, -13.53 04/06/2016 02:28:37 8.26, -14.33 88.85 362




NCC Satellite Simultaneous Nadir Overpasses (SNOs) Prediction Service
